Showing default

QIANFAN-92, 66034

Orbit data source: Space-Track

QIANFAN-92, 66034 is a Chinese payload satellite in LEO that was launched on Fri, 17 Oct 2025 UTC via a CHANG ZHENG 6A launch vehicle from the Taiyaun Space Center, China (TSC). Payload-class satellites include a variety of spacecraft equipped with specific instruments for various scientific and technological missions. These include communications satellites like Starlink; space stations such as the ISS; scientific satellites like the Hubble; Earth observation satellites from companies like Planet Labs, Umbra, and HawkEye 360; GPS; miniature CubeSats for education and research; and military/defense satellites.

Loading next visibility...
Identifier
66034, 2025-233B
Orbit
LEO
Country
Flag of CNCN / PRC
Related business
Manufacturer
SECM
Mission
Operational Commercial Communications
Bus & Motor
QIANFAN, Unknown motor
Mass
267 kg wet, ~267 kg dry
Launch date (UTC)
2025-10-17 (8 months ago)
Launch vehicle
CHANG ZHENG 6A
Launch site
Taiyaun Space Center, China (TSC)
Object type
Payload
Rocket body
Debris
Shape & HBR
Box + 1 Pan, 14.5 m
Radar Cross Section
13.200 m², Large (>1 m²)

Expand to show TLE details & history
Last TLE update: 8 hours ago

TLE from 8 hours ago
0 QIANFAN-92
1 66034U 25233B   26177.69549727  .00000108  00000-0  14800-3 0  9991
2 66034  88.9979  42.1997 0001958  80.5841 279.5531 13.51015972 34465
Epoch: 2026-06-26T16:41Z
TLE epoch observation values (Epoch: 2026-06-26T16:41:30.964Z)
Latitude
-0.00005°
Longitude
-122.99963°
Altitude
1,071.234 km
Speed
7.316 km/s
True Right ascension
02h 48m 47s
True Declination
0° 00' 00"
Sunlit
Object was in daylight at epoch
Visualization orbit readout
Latitude
Unknown
Longitude
Unknown
Altitude
Unknown
Speed
Unknown
Apparent Right ascension
Unknown
Apparent Declination
Unknown
Sunlit
N/A
Visualization observer readout
Local Sidereal Time
12:10:05
Azimuth
Unknown
Elevation
Unknown
Doppler factor
Unknown
Orbital elements
Apogee altitude
1,067.031 km
Perigee altitude
1,064.116 km
Semi-major axis
7,443.711 km
Eccentricity
0.0002
Inclination
88.9979°
RAAN
42.1997°
Arg. of periapsis
80.5841°
True anomaly
279.53097°
Mean anomaly
279.5531°
Eccentric anomaly
279.54204°
Mean motion
3.37955 °/min
Orbital period
106.52 mins
BSTAR
0.000148
Loading maneuver chart data...
Computing Atmospheric mass density...
Loading historical data...
Loading historical data...
Loading historical data...
Loading historical data...
Loading historical data...
Loading historical data...
Loading historical data...

Documentation

Showing up to 5 results
|